| time (UTC) | temp C | wind direction | speed KPH | gust KPH | rain 1hr cm | rain 24hr cm | rain mn cm | humidity % | barometer mb |
| 20260506123054 | 18 | 0 | 0.0 | 11.3 | 0.00 | 0.00 | 0.00 | 72 | 1007.2 |
| 20260506121555 | 18 | 0 | 0.0 | 12.9 | 0.00 | 0.00 | 0.00 | 72 | 1007.4 |
| 20260506120059 | 18 | 0 | 0.0 | 6.4 | 0.00 | 0.00 | 0.00 | 72 | 1007.5 |
| 20260506114604 | 18 | 0 | 0.0 | 3.2 | 0.00 | 0.00 | 0.00 | 73 | 1007.7 |
| 20260506113057 | 18 | 115 | 0.0 | 11.3 | 0.00 | 0.00 | 0.00 | 73 | 1007.7 |
| 20260506111557 | 18 | 0 | 0.0 | 14.5 | 0.00 | 0.00 | 0.00 | 74 | 1007.6 |
| 20260506110103 | 17 | 0 | 0.0 | 11.3 | 0.00 | 0.00 | 0.00 | 74 | 1007.4 |
| 20260506104600 | 17 | 0 | 0.0 | 6.4 | 0.00 | 0.00 | 0.00 | 75 | 1007.3 |
| 20260506103103 | 17 | 0 | 0.0 | 9.7 | 0.00 | 0.00 | 0.00 | 75 | 1007.4 |
| 20260506101604 | 17 | 0 | 0.0 | 1.6 | 0.00 | 0.00 | 0.00 | 75 | 1007.4 |
| 20260506094631 | 17 | 0 | 0.0 | 6.4 | 0.00 | 0.00 | 0.00 | 76 | 1007.3 |
| 20260506093056 | 17 | 0 | 0.0 | 6.4 | 0.00 | 0.00 | 0.00 | 76 | 1007.4 |
| 20260506091551 | 17 | 0 | 0.0 | 6.4 | 0.00 | 0.00 | 0.00 | 76 | 1007.4 |
| 20260506090054 | 17 | 0 | 0.0 | 1.6 | 0.00 | 0.00 | 0.00 | 75 | 1007.4 |
| 20260506084555 | 17 | 0 | 0.0 | 1.6 | 0.00 | 0.00 | 0.00 | 75 | 1007.5 |
| 20260506083102 | 17 | 0 | 0.0 | 4.8 | 0.00 | 0.00 | 0.00 | 74 | 1007.6 |
| 20260506081553 | 18 | 0 | 0.0 | 0.0 | 0.00 | 0.00 | 0.00 | 73 | 1007.6 |
| 20260506073053 | 18 | 0 | 0.0 | 1.6 | 0.00 | 0.00 | 0.00 | 71 | 1007.5 |
| 20260506071553 | 18 | 0 | 0.0 | 12.9 | 0.00 | 0.00 | 0.00 | 70 | 1007.5 |
| 20260506070104 | 18 | 0 | 0.0 | 9.7 | 0.00 | 0.00 | 0.00 | 69 | 1007.6 |
| 20260506061558 | 18 | 0 | 0.0 | 11.3 | 0.00 | 0.00 | 0.00 | 67 | 1007.8 |
| 20260506044557 | 20 | 0 | 0.0 | 4.8 | 0.00 | 0.00 | 0.00 | 63 | 1008.3 |
| 20260506043052 | 20 | 146 | 0.0 | 11.3 | 0.00 | 0.00 | 0.00 | 62 | 1008.2 |
| 20260506041553 | 20 | 0 | 0.0 | 6.4 | 0.00 | 0.00 | 0.00 | 61 | 1008.2 |
| 20260506040104 | 20 | 0 | 0.0 | 9.7 | 0.00 | 0.00 | 0.00 | 60 | 1008.1 |
| 20260506034608 | 20 | 0 | 0.0 | 16.1 | 0.00 | 0.00 | 0.00 | 60 | 1008.1 |
| 20260506033055 | 20 | 0 | 1.6 | 11.3 | 0.00 | 0.00 | 0.00 | 59 | 1008.2 |
| 20260506031603 | 21 | 131 | 0.0 | 12.9 | 0.00 | 0.00 | 0.00 | 58 | 1008.1 |
| 20260506030056 | 21 | 0 | 0.0 | 16.1 | 0.00 | 0.00 | 0.00 | 57 | 1008.2 |
| 20260506024554 | 21 | 0 | 1.6 | 11.3 | 0.00 | 0.00 | 0.00 | 54 | 1008.0 |
| 20260506023054 | 22 | 0 | 0.0 | 11.3 | 0.00 | 0.00 | 0.00 | 53 | 1008.0 |
| 20260506021559 | 22 | 0 | 0.0 | 17.7 | 0.00 | 0.00 | 0.00 | 51 | 1008.0 |
| 20260506020101 | 23 | 155 | 3.2 | 12.9 | 0.00 | 0.00 | 0.00 | 48 | 1007.9 |
| 20260506014556 | 23 | 164 | 0.0 | 12.9 | 0.00 | 0.00 | 0.00 | 46 | 1007.7 |
| 20260506013058 | 23 | 0 | 0.0 | 6.4 | 0.00 | 0.00 | 0.00 | 45 | 1007.5 |
| 20260506011601 | 23 | 0 | 0.0 | 8.0 | 0.00 | 0.00 | 0.00 | 44 | 1007.3 |
| 20260506010059 | 24 | 0 | 0.0 | 12.9 | 0.00 | 0.00 | 0.00 | 43 | 1007.1 |
| 20260506004552 | 24 | 119 | 1.6 | 16.1 | 0.00 | 0.00 | 0.00 | 42 | 1006.9 |
| 20260506003058 | 24 | 136 | 0.0 | 11.3 | 0.00 | 0.00 | 0.00 | 41 | 1006.9 |
| 20260506001554 | 25 | 0 | 0.0 | 12.9 | 0.00 | 0.00 | 0.00 | 38 | 1006.7 |
| 20260506000053 | 25 | 0 | 0.0 | 6.4 | 0.00 | 0.00 | 0.00 | 36 | 1006.6 |
| 20260505234603 | 25 | 0 | 0.0 | 6.4 | 0.00 | 0.00 | 0.00 | 36 | 1006.5 |
| 20260505233109 | 25 | 185 | 1.6 | 17.7 | 0.00 | 0.00 | 0.00 | 35 | 1006.5 |
| 20260505231602 | 26 | 150 | 0.0 | 16.1 | 0.00 | 0.00 | 0.00 | 34 | 1006.1 |
| 20260505230056 | 26 | 148 | 1.6 | 11.3 | 0.00 | 0.00 | 0.00 | 33 | 1006.0 |
| 20260505224554 | 26 | 171 | 0.0 | 12.9 | 0.00 | 0.00 | 0.00 | 32 | 1005.9 |
| 20260505223057 | 27 | 243 | 4.8 | 24.1 | 0.00 | 0.00 | 0.00 | 31 | 1005.7 |
| 20260505221554 | 27 | 113 | 1.6 | 11.3 | 0.00 | 0.00 | 0.00 | 30 | 1005.6 |
| 20260505220053 | 27 | 177 | 1.6 | 19.3 | 0.00 | 0.00 | 0.00 | 31 | 1005.4 |
| 20260505214555 | 27 | 300 | 1.6 | 19.3 | 0.00 | 0.00 | 0.00 | 32 | 1005.4 |
| 20260505213054 | 27 | 98 | 0.0 | 19.3 | 0.00 | 0.00 | 0.00 | 32 | 1005.4 |
| 20260505211610 | 28 | 223 | 0.0 | 20.9 | 0.00 | 0.00 | 0.00 | 31 | 1005.1 |
| 20260505210054 | 28 | 167 | 4.8 | 29.0 | 0.00 | 0.00 | 0.00 | 30 | 1005.1 |
| 20260505204602 | 28 | 119 | 4.8 | 20.9 | 0.00 | 0.00 | 0.00 | 31 | 1005.1 |
| 20260505203058 | 28 | 239 | 0.0 | 24.1 | 0.00 | 0.00 | 0.00 | 31 | 1005.2 |
| 20260505201600 | 28 | 111 | 3.2 | 17.7 | 0.00 | 0.00 | 0.00 | 32 | 1005.4 |
| 20260505194609 | 28 | 0 | 3.2 | 20.9 | 0.00 | 0.00 | 0.00 | 33 | 1005.3 |
| 20260505193054 | 28 | 163 | 3.2 | 16.1 | 0.00 | 0.00 | 0.00 | 33 | 1005.4 |
| 20260505191554 | 28 | 164 | 0.0 | 19.3 | 0.00 | 0.00 | 0.00 | 34 | 1005.7 |
| 20260505190057 | 28 | 200 | 3.2 | 25.7 | 0.00 | 0.00 | 0.00 | 32 | 1005.9 |
| 20260505184553 | 27 | 136 | 3.2 | 20.9 | 0.00 | 0.00 | 0.00 | 36 | 1006.1 |
| 20260505183055 | 28 | 0 | 1.6 | 16.1 | 0.00 | 0.00 | 0.00 | 37 | 1006.5 |
| 20260505181600 | 27 | 136 | 3.2 | 24.1 | 0.00 | 0.00 | 0.00 | 37 | 1006.5 |
| 20260505180058 | 27 | 203 | 1.6 | 14.5 | 0.00 | 0.00 | 0.00 | 39 | 1006.6 |
| 20260505174606 | 27 | 166 | 1.6 | 17.7 | 0.00 | 0.00 | 0.00 | 39 | 1006.8 |
| 20260505173057 | 27 | 0 | 3.2 | 14.5 | 0.00 | 0.00 | 0.00 | 40 | 1006.9 |
| 20260505171608 | 27 | 169 | 0.0 | 11.3 | 0.00 | 0.00 | 0.00 | 44 | 1007.2 |
| 20260505170057 | 26 | 0 | 1.6 | 12.9 | 0.00 | 0.00 | 0.00 | 44 | 1007.1 |
| 20260505164617 | 26 | 0 | 0.0 | 14.5 | 0.00 | 0.00 | 0.00 | 45 | 1007.3 |
| 20260505163102 | 25 | 0 | 0.0 | 11.3 | 0.00 | 0.00 | 0.00 | 45 | 1007.5 |
| 20260505161613 | 25 | 0 | 0.0 | 11.3 | 0.00 | 0.00 | 0.00 | 49 | 1007.5 |
| 20260505153055 | 23 | 188 | 0.0 | 8.0 | 0.00 | 0.00 | 0.00 | 52 | 1008.5 |
| 20260505151559 | 22 | 0 | 0.0 | 16.1 | 0.00 | 0.00 | 0.00 | 53 | 1008.7 |
| 20260505150106 | 22 | 0 | 0.0 | 12.9 | 0.00 | 0.00 | 0.00 | 54 | 1008.7 |
| 20260505130110 | 17 | 0 | 0.0 | 6.4 | 0.00 | 0.00 | 0.00 | 68 | 1008.9 |
| 20260505124602 | 16 | 0 | 0.0 | 9.7 | 0.00 | 0.00 | 0.00 | 71 | 1008.6 |